Time,TemperatureF,DewpointF,PressureIn,WindDirection,WindDirectionDegrees,WindSpeedMPH,WindSpeedGustMPH,Humidity,HourlyPrecipIn,Conditions,Clouds,dailyrainin,SoftwareType,DateUTC
2013-01-27 00:01:00,41.0,40.0,-100.00,SW,225,3.0,6.0,98,-99.99,,,-99.99,,2013-01-27 08:01:00,
2013-01-27 00:11:00,40.0,39.0,-100.00,SW,230,3.0,8.0,98,-99.99,,,-99.99,,2013-01-27 08:11:00,
2013-01-27 00:21:00,40.0,39.0,-100.00,SW,235,3.0,6.0,98,-99.99,,,-99.99,,2013-01-27 08:21:00,
2013-01-27 00:31:00,40.0,39.0,-100.00,SSW,211,2.0,6.0,98,-99.99,,,-99.99,,2013-01-27 08:31:00,
2013-01-27 00:41:00,40.0,39.0,-100.00,SW,222,2.0,6.0,98,-99.99,,,-99.99,,2013-01-27 08:41:00,
2013-01-27 00:52:00,40.0,39.0,-100.00,SW,223,2.0,5.0,98,-99.99,,,-99.99,,2013-01-27 08:52:00,
2013-01-27 01:02:00,40.0,39.0,-100.00,SW,223,3.0,6.0,98,-99.99,,,-99.99,,2013-01-27 09:02:00,
2013-01-27 01:11:00,39.0,38.0,-100.00,SW,214,2.0,6.0,98,-99.99,,,-99.99,,2013-01-27 09:11:00,
2013-01-27 01:21:00,40.0,39.0,-100.00,SW,221,3.0,7.0,98,-99.99,,,-99.99,,2013-01-27 09:21:00,
2013-01-27 01:31:00,39.0,38.0,-100.00,SW,219,3.0,10.0,98,-99.99,,,-99.99,,2013-01-27 09:31:00,
2013-01-27 01:41:00,40.0,39.0,-100.00,SW,232,4.0,7.0,98,-99.99,,,-99.99,,2013-01-27 09:41:00,
2013-01-27 01:51:00,40.0,39.0,-100.00,SW,236,4.0,10.0,98,-99.99,,,-99.99,,2013-01-27 09:51:00,
2013-01-27 02:01:00,39.0,38.0,-100.00,SW,236,5.0,10.0,98,-99.99,,,-99.99,,2013-01-27 10:01:00,
2013-01-27 02:11:00,40.0,39.0,-100.00,SW,228,3.0,7.0,98,-99.99,,,-99.99,,2013-01-27 10:11:00,
2013-01-27 02:21:00,40.0,39.0,-100.00,SW,223,3.0,6.0,98,-99.99,,,-99.99,,2013-01-27 10:21:00,
2013-01-27 02:31:00,40.0,39.0,-100.00,SW,235,5.0,10.0,98,-99.99,,,-99.99,,2013-01-27 10:31:00,
2013-01-27 02:41:00,40.0,39.0,-100.00,SW,231,4.0,9.0,98,-99.99,,,-99.99,,2013-01-27 10:41:00,
2013-01-27 02:51:00,39.0,38.0,-100.00,SW,227,4.0,7.0,98,-99.99,,,-99.99,,2013-01-27 10:51:00,
2013-01-27 03:01:00,39.0,38.0,-100.00,SW,227,3.0,8.0,98,-99.99,,,-99.99,,2013-01-27 11:01:00,
2013-01-27 03:11:00,39.0,38.0,-100.00,SW,226,3.0,8.0,98,-99.99,,,-99.99,,2013-01-27 11:11:00,
2013-01-27 03:21:00,39.0,38.0,-100.00,SW,215,2.0,6.0,98,-99.99,,,-99.99,,2013-01-27 11:21:00,
2013-01-27 03:32:00,39.0,38.0,-100.00,SW,215,3.0,6.0,98,-99.99,,,-99.99,,2013-01-27 11:32:00,
2013-01-27 03:42:00,39.0,38.0,-100.00,SW,218,2.0,6.0,98,-99.99,,,-99.99,,2013-01-27 11:42:00,
2013-01-27 03:52:00,39.0,38.0,-100.00,SSW,195,4.0,11.0,98,-99.99,,,-99.99,,2013-01-27 11:52:00,
2013-01-27 04:02:00,39.0,38.0,-100.00,SSW,206,2.0,5.0,98,-99.99,,,-99.99,,2013-01-27 12:02:00,
2013-01-27 04:11:00,39.0,38.0,-100.00,SSW,194,3.0,12.0,98,-99.99,,,-99.99,,2013-01-27 12:11:00,
2013-01-27 04:21:00,39.0,38.0,-100.00,SSW,197,4.0,12.0,98,-99.99,,,-99.99,,2013-01-27 12:21:00,
2013-01-27 04:32:00,39.0,38.0,-100.00,SSW,201,3.0,10.0,98,-99.99,,,-99.99,,2013-01-27 12:32:00,
2013-01-27 04:42:00,39.0,38.0,-100.00,SSW,201,3.0,10.0,98,-99.99,,,-99.99,,2013-01-27 12:42:00,
2013-01-27 04:52:00,39.0,38.0,-100.00,SSW,199,3.0,11.0,98,-99.99,,,-99.99,,2013-01-27 12:52:00,
2013-01-27 05:01:00,39.0,38.0,-100.00,SSW,208,3.0,7.0,98,-99.99,,,-99.99,,2013-01-27 13:01:00,
2013-01-27 05:11:00,39.0,38.0,-100.00,SW,217,3.0,9.0,98,-99.99,,,-99.99,,2013-01-27 13:11:00,
2013-01-27 05:22:00,39.0,38.0,-100.00,SW,215,4.0,10.0,98,-99.99,,,-99.99,,2013-01-27 13:22:00,
2013-01-27 05:31:00,39.0,38.0,-100.00,SW,219,4.0,9.0,98,-99.99,,,-99.99,,2013-01-27 13:31:00,
2013-01-27 05:41:00,38.0,37.0,-100.00,SW,228,5.0,12.0,98,-99.99,,,-99.99,,2013-01-27 13:41:00,
2013-01-27 05:52:00,38.0,37.0,-100.00,SW,218,4.0,11.0,98,-99.99,,,-99.99,,2013-01-27 13:52:00,
2013-01-27 06:01:00,38.0,37.0,-100.00,SW,232,5.0,11.0,98,-99.99,,,-99.99,,2013-01-27 14:01:00,
2013-01-27 06:11:00,38.0,37.0,-100.00,SW,220,4.0,10.0,98,-99.99,,,-99.99,,2013-01-27 14:11:00,
2013-01-27 06:21:00,38.0,37.0,-100.00,SW,235,4.0,9.0,98,-99.99,,,-99.99,,2013-01-27 14:21:00,
2013-01-27 06:31:00,37.0,37.0,-100.00,WSW,243,4.0,8.0,99,-99.99,,,-99.99,,2013-01-27 14:31:00,
2013-01-27 06:42:00,37.0,37.0,-100.00,SW,234,5.0,12.0,99,-99.99,,,-99.99,,2013-01-27 14:42:00,
2013-01-27 06:52:00,36.0,36.0,-100.00,SW,234,4.0,10.0,99,-99.99,,,-99.99,,2013-01-27 14:52:00,
2013-01-27 07:01:00,36.0,36.0,-100.00,SW,234,5.0,9.0,99,-99.99,,,-99.99,,2013-01-27 15:01:00,
2013-01-27 07:11:00,36.0,36.0,-100.00,SW,232,5.0,10.0,99,-99.99,,,-99.99,,2013-01-27 15:11:00,
2013-01-27 07:21:00,36.0,36.0,-100.00,SW,224,4.0,9.0,99,-99.99,,,-99.99,,2013-01-27 15:21:00,
2013-01-27 07:32:00,36.0,36.0,-100.00,SW,233,5.0,11.0,99,-99.99,,,-99.99,,2013-01-27 15:32:00,
2013-01-27 07:42:00,36.0,36.0,-100.00,WSW,239,6.0,11.0,99,-99.99,,,-99.99,,2013-01-27 15:42:00,
2013-01-27 07:52:00,36.0,36.0,-100.00,WSW,239,5.0,11.0,99,-99.99,,,-99.99,,2013-01-27 15:52:00,
2013-01-27 08:01:00,36.0,36.0,-100.00,WSW,237,5.0,10.0,99,-99.99,,,-99.99,,2013-01-27 16:01:00,
2013-01-27 08:11:00,36.0,36.0,-100.00,WSW,239,5.0,10.0,99,-99.99,,,-99.99,,2013-01-27 16:11:00,
2013-01-27 08:21:00,36.0,36.0,-100.00,WSW,242,5.0,12.0,99,-99.99,,,-99.99,,2013-01-27 16:21:00,
2013-01-27 08:32:00,36.0,35.0,-100.00,SW,236,4.0,9.0,98,-99.99,,,-99.99,,2013-01-27 16:32:00,
2013-01-27 08:41:00,36.0,35.0,-100.00,SW,236,4.0,9.0,98,-99.99,,,-99.99,,2013-01-27 16:41:00,
2013-01-27 08:52:00,35.0,34.0,-100.00,SW,234,5.0,12.0,98,-99.99,,,-99.99,,2013-01-27 16:52:00,
2013-01-27 09:01:00,36.0,35.0,-100.00,SW,234,4.0,8.0,98,-99.99,,,-99.99,,2013-01-27 17:01:00,
2013-01-27 09:11:00,36.0,35.0,-100.00,WSW,238,4.0,10.0,97,-99.99,,,-99.99,,2013-01-27 17:11:00,
2013-01-27 09:21:00,36.0,35.0,-100.00,WSW,241,5.0,10.0,96,-99.99,,,-99.99,,2013-01-27 17:21:00,
2013-01-27 09:32:00,37.0,36.0,-100.00,SW,230,4.0,11.0,95,-99.99,,,-99.99,,2013-01-27 17:32:00,
2013-01-27 09:42:00,37.0,36.0,-100.00,SW,230,4.0,11.0,95,-99.99,,,-99.99,,2013-01-27 17:42:00,
2013-01-27 09:52:00,38.0,36.0,-100.00,SW,233,3.0,10.0,93,-99.99,,,-99.99,,2013-01-27 17:52:00,
2013-01-27 10:01:00,38.0,36.0,-100.00,SW,234,4.0,9.0,93,-99.99,,,-99.99,,2013-01-27 18:01:00,
2013-01-27 10:11:00,38.0,36.0,-100.00,SW,232,4.0,11.0,92,-99.99,,,-99.99,,2013-01-27 18:11:00,
2013-01-27 10:22:00,38.0,36.0,-100.00,SW,236,4.0,9.0,91,-99.99,,,-99.99,,2013-01-27 18:22:00,
2013-01-27 10:32:00,38.0,35.0,-100.00,WSW,239,4.0,9.0,90,-99.99,,,-99.99,,2013-01-27 18:32:00,
2013-01-27 10:41:00,38.0,36.0,-100.00,SW,236,3.0,9.0,92,-99.99,,,-99.99,,2013-01-27 18:41:00,
2013-01-27 10:51:00,39.0,36.0,-100.00,SW,222,4.0,11.0,89,-99.99,,,-99.99,,2013-01-27 18:51:00,
2013-01-27 11:01:00,39.0,36.0,-100.00,SW,219,4.0,9.0,88,-99.99,,,-99.99,,2013-01-27 19:01:00,
2013-01-27 11:11:00,39.0,36.0,-100.00,WSW,239,4.0,10.0,88,-99.99,,,-99.99,,2013-01-27 19:11:00,
2013-01-27 11:21:00,39.0,36.0,-100.00,SW,217,5.0,13.0,89,-99.99,,,-99.99,,2013-01-27 19:21:00,
2013-01-27 11:32:00,39.0,36.0,-100.00,SSW,212,4.0,9.0,89,-99.99,,,-99.99,,2013-01-27 19:32:00,
2013-01-27 11:41:00,40.0,36.0,-100.00,SW,216,5.0,13.0,84,-99.99,,,-99.99,,2013-01-27 19:41:00,
2013-01-27 11:51:00,39.0,35.0,-100.00,SW,232,4.0,14.0,87,-99.99,,,-99.99,,2013-01-27 19:51:00,
2013-01-27 12:02:00,38.0,35.0,-100.00,SSW,213,5.0,14.0,88,-99.99,,,-99.99,,2013-01-27 20:02:00,
2013-01-27 12:11:00,38.0,35.0,-100.00,SSW,213,5.0,14.0,88,-99.99,,,-99.99,,2013-01-27 20:11:00,
2013-01-27 12:22:00,38.0,34.0,-100.00,SW,224,5.0,11.0,86,-99.99,,,-99.99,,2013-01-27 20:22:00,
2013-01-27 12:32:00,38.0,34.0,-100.00,SW,220,4.0,12.0,87,-99.99,,,-99.99,,2013-01-27 20:32:00,
2013-01-27 12:41:00,38.0,34.0,-100.00,SW,227,5.0,12.0,87,-99.99,,,-99.99,,2013-01-27 20:41:00,
2013-01-27 12:52:00,38.0,34.0,-100.00,SW,226,5.0,10.0,87,-99.99,,,-99.99,,2013-01-27 20:52:00,
2013-01-27 13:01:00,39.0,35.0,-100.00,SW,215,4.0,11.0,84,-99.99,,,-99.99,,2013-01-27 21:01:00,
2013-01-27 13:11:00,38.0,33.0,-100.00,SSW,213,5.0,12.0,83,-99.99,,,-99.99,,2013-01-27 21:11:00,
2013-01-27 13:22:00,38.0,33.0,-100.00,SW,223,5.0,14.0,82,-99.99,,,-99.99,,2013-01-27 21:22:00,
2013-01-27 13:32:00,38.0,33.0,-100.00,SW,223,6.0,14.0,81,-99.99,,,-99.99,,2013-01-27 21:32:00,
2013-01-27 13:42:00,37.0,32.0,-100.00,SW,235,6.0,16.0,83,-99.99,,,-99.99,,2013-01-27 21:42:00,
2013-01-27 13:52:00,36.0,32.0,-100.00,SW,233,7.0,17.0,84,-99.99,,,-99.99,,2013-01-27 21:52:00,
2013-01-27 14:01:00,36.0,33.0,-100.00,SW,226,6.0,13.0,87,-99.99,,,-99.99,,2013-01-27 22:01:00,
2013-01-27 14:11:00,36.0,32.0,-100.00,SW,226,6.0,12.0,86,-99.99,,,-99.99,,2013-01-27 22:11:00,
2013-01-27 14:21:00,35.0,32.0,-100.00,SW,226,6.0,12.0,88,-99.99,,,-99.99,,2013-01-27 22:21:00,
2013-01-27 14:31:00,35.0,32.0,-100.00,SW,227,6.0,17.0,87,-99.99,,,-99.99,,2013-01-27 22:31:00,
2013-01-27 14:42:00,35.0,32.0,-100.00,SW,227,6.0,17.0,87,-99.99,,,-99.99,,2013-01-27 22:42:00,
2013-01-27 14:51:00,36.0,31.0,-100.00,SW,214,5.0,14.0,82,-99.99,,,-99.99,,2013-01-27 22:51:00,
2013-01-27 15:01:00,36.0,31.0,-100.00,SW,214,5.0,14.0,82,-99.99,,,-99.99,,2013-01-27 23:01:00,
2013-01-27 15:11:00,35.0,30.0,-100.00,SW,222,5.0,12.0,83,-99.99,,,-99.99,,2013-01-27 23:11:00,
2013-01-27 15:21:00,35.0,30.0,-100.00,SW,223,6.0,13.0,82,-99.99,,,-99.99,,2013-01-27 23:21:00,
2013-01-27 15:31:00,35.0,29.0,-100.00,SW,224,5.0,13.0,80,-99.99,,,-99.99,,2013-01-27 23:31:00,
2013-01-27 15:41:00,35.0,29.0,-100.00,SW,224,5.0,13.0,80,-99.99,,,-99.99,,2013-01-27 23:41:00,
2013-01-27 15:52:00,34.0,31.0,-100.00,SW,222,5.0,17.0,88,-99.99,,,-99.99,,2013-01-27 23:52:00,
2013-01-27 16:01:00,34.0,31.0,-100.00,SW,222,5.0,17.0,88,-99.99,,,-99.99,,2013-01-28 00:01:00,
2013-01-27 16:11:00,33.0,30.0,-100.00,SW,227,6.0,13.0,89,-99.99,,,-99.99,,2013-01-28 00:11:00,
2013-01-27 16:21:00,32.0,29.0,-100.00,SW,229,6.0,14.0,90,-99.99,,,-99.99,,2013-01-28 00:21:00,
2013-01-27 16:32:00,31.0,28.0,-100.00,SW,221,5.0,12.0,90,-99.99,,,-99.99,,2013-01-28 00:32:00,
2013-01-27 16:41:00,31.0,28.0,-100.00,SW,221,5.0,12.0,90,-99.99,,,-99.99,,2013-01-28 00:41:00,
2013-01-27 16:51:00,30.0,28.0,-100.00,SW,222,5.0,13.0,94,-99.99,,,-99.99,,2013-01-28 00:51:00,
2013-01-27 17:01:00,30.0,28.0,-100.00,SW,222,5.0,13.0,94,-99.99,,,-99.99,,2013-01-28 01:01:00,
2013-01-27 17:11:00,30.0,29.0,-100.00,SW,218,5.0,15.0,95,-99.99,,,-99.99,,2013-01-28 01:11:00,
2013-01-27 17:21:00,29.0,28.0,-100.00,SW,214,4.0,11.0,96,-99.99,,,-99.99,,2013-01-28 01:21:00,
2013-01-27 17:32:00,29.0,28.0,-100.00,SW,225,5.0,11.0,97,-99.99,,,-99.99,,2013-01-28 01:32:00,
2013-01-27 17:42:00,29.0,29.0,-100.00,SW,219,4.0,10.0,98,-99.99,,,-99.99,,2013-01-28 01:42:00,
2013-01-27 17:51:00,29.0,29.0,-100.00,SW,230,6.0,12.0,98,-99.99,,,-99.99,,2013-01-28 01:51:00,
2013-01-27 18:01:00,29.0,29.0,-100.00,SW,225,5.0,15.0,98,-99.99,,,-99.99,,2013-01-28 02:01:00,
2013-01-27 18:11:00,29.0,28.0,-100.00,SW,231,6.0,14.0,97,-99.99,,,-99.99,,2013-01-28 02:11:00,
2013-01-27 18:21:00,29.0,28.0,-100.00,SW,232,6.0,13.0,97,-99.99,,,-99.99,,2013-01-28 02:21:00,
2013-01-27 18:32:00,29.0,28.0,-100.00,SW,228,6.0,14.0,97,-99.99,,,-99.99,,2013-01-28 02:32:00,
2013-01-27 18:41:00,28.0,27.0,-100.00,SW,228,7.0,16.0,97,-99.99,,,-99.99,,2013-01-28 02:41:00,
2013-01-27 18:52:00,28.0,27.0,-100.00,SW,224,6.0,16.0,97,-99.99,,,-99.99,,2013-01-28 02:52:00,
2013-01-27 19:01:00,28.0,28.0,-100.00,SW,223,5.0,12.0,98,-99.99,,,-99.99,,2013-01-28 03:01:00,
2013-01-27 19:11:00,28.0,28.0,-100.00,SW,227,6.0,17.0,98,-99.99,,,-99.99,,2013-01-28 03:11:00,
2013-01-27 19:21:00,27.0,27.0,-100.00,SW,223,5.0,14.0,98,-99.99,,,-99.99,,2013-01-28 03:21:00,
2013-01-27 19:32:00,27.0,27.0,-100.00,SW,235,7.0,15.0,98,-99.99,,,-99.99,,2013-01-28 03:32:00,
2013-01-27 19:41:00,27.0,26.0,-100.00,SW,235,6.0,13.0,97,-99.99,,,-99.99,,2013-01-28 03:41:00,
2013-01-27 19:52:00,28.0,28.0,-100.00,SW,233,7.0,17.0,98,-99.99,,,-99.99,,2013-01-28 03:52:00,
2013-01-27 20:01:00,27.0,27.0,-100.00,SW,230,7.0,14.0,98,-99.99,,,-99.99,,2013-01-28 04:01:00,
2013-01-27 20:11:00,26.0,26.0,-100.00,SW,236,7.0,16.0,98,-99.99,,,-99.99,,2013-01-28 04:11:00,
2013-01-27 20:21:00,26.0,26.0,-100.00,WSW,239,6.0,15.0,98,-99.99,,,-99.99,,2013-01-28 04:21:00,
2013-01-27 20:31:00,27.0,27.0,-100.00,WSW,240,7.0,14.0,98,-99.99,,,-99.99,,2013-01-28 04:31:00,
2013-01-27 20:41:00,27.0,27.0,-100.00,WSW,240,7.0,14.0,99,-99.99,,,-99.99,,2013-01-28 04:41:00,
2013-01-27 20:52:00,27.0,27.0,-100.00,WSW,239,7.0,14.0,99,-99.99,,,-99.99,,2013-01-28 04:52:00,
2013-01-27 21:03:00,27.0,27.0,-100.00,WSW,240,8.0,16.0,99,-99.99,,,-99.99,,2013-01-28 05:03:00,
2013-01-27 21:11:00,27.0,27.0,-100.00,SW,236,7.0,15.0,99,-99.99,,,-99.99,,2013-01-28 05:11:00,
2013-01-27 21:21:00,27.0,27.0,-100.00,WSW,242,7.0,14.0,98,-99.99,,,-99.99,,2013-01-28 05:21:00,
2013-01-27 21:31:00,27.0,27.0,-100.00,WSW,240,8.0,18.0,98,-99.99,,,-99.99,,2013-01-28 05:31:00,
2013-01-27 21:41:00,27.0,27.0,-100.00,WSW,240,7.0,16.0,98,-99.99,,,-99.99,,2013-01-28 05:41:00,
2013-01-27 21:52:00,27.0,27.0,-100.00,WSW,244,7.0,15.0,98,-99.99,,,-99.99,,2013-01-28 05:52:00,
2013-01-27 22:01:00,27.0,27.0,-100.00,WSW,246,6.0,15.0,98,-99.99,,,-99.99,,2013-01-28 06:01:00,
2013-01-27 22:11:00,28.0,28.0,-100.00,WSW,244,7.0,12.0,98,-99.99,,,-99.99,,2013-01-28 06:11:00,
2013-01-27 22:21:00,28.0,28.0,-100.00,SW,232,7.0,16.0,98,-99.99,,,-99.99,,2013-01-28 06:21:00,
2013-01-27 22:32:00,27.0,27.0,-100.00,SW,235,6.0,16.0,98,-99.99,,,-99.99,,2013-01-28 06:32:00,
2013-01-27 22:42:00,26.0,26.0,-100.00,WSW,237,7.0,15.0,98,-99.99,,,-99.99,,2013-01-28 06:42:00,
2013-01-27 22:52:00,26.0,26.0,-100.00,WSW,237,7.0,17.0,98,-99.99,,,-99.99,,2013-01-28 06:52:00,
2013-01-27 23:02:00,26.0,25.0,-100.00,WSW,247,8.0,15.0,97,-99.99,,,-99.99,,2013-01-28 07:02:00,
2013-01-27 23:11:00,26.0,25.0,-100.00,WSW,247,6.0,12.0,97,-99.99,,,-99.99,,2013-01-28 07:11:00,
2013-01-27 23:21:00,26.0,25.0,-100.00,WSW,241,6.0,14.0,97,-99.99,,,-99.99,,2013-01-28 07:21:00,
2013-01-27 23:31:00,26.0,25.0,-100.00,WSW,240,7.0,14.0,97,-99.99,,,-99.99,,2013-01-28 07:31:00,
2013-01-27 23:41:00,26.0,25.0,-100.00,WSW,244,8.0,13.0,97,-99.99,,,-99.99,,2013-01-28 07:41:00,
2013-01-27 23:51:00,26.0,26.0,-100.00,SW,232,7.0,15.0,98,-99.99,,,-99.99,,2013-01-28 07:51:00,